ECMWFFLT1_500_spd_096.txt.gz
Wind_Speed
18 19 19 20 20 21 20 20 20 21 21 21 22 23 25 26 27 29 30 32 33 34 31 29 29 29 27 28 28 26 26 26 25 26 26 25 26 26 27 29 29 29 29 28 28 26 24 24 24 24 25 24 23 21 21 22 21 20 19 18 17 16 15
19 20 20 21 22 22 21 20 20 21 21 22 23 24 25 26 27 29 30 31 33 34 32 29 29 29 28 28 28 25 24 24 24 25 25 25 26 25 26 28 29 29 29 28 28 27 25 25 25 25 26 25 23 23 23 23 22 21 20 19 17 17 15
21 21 22 23 23 23 22 21 21 22 22 23 24 24 25 26 27 28 29 30 31 32 31 30 29 28 27 26 26 24 22 22 22 24 25 26 27 26 26 27 28 29 29 29 29 28 28 27 26 27 27 26 25 25 24 23 22 21 20 19 18 18 16
22 22 23 24 24 24 23 22 21 22 22 23 24 25 25 25 26 27 28 28 30 30 31 31 30 29 27 26 25 24 24 24 24 24 26 27 28 28 28 28 28 29 31 32 32 31 30 28 28 29 28 27 27 26 25 23 22 21 20 20 20 19 17
23 23 24 24 25 25 24 23 23 23 23 23 23 24 25 26 26 27 27 28 29 30 30 32 31 29 27 27 26 25 24 24 25 26 28 29 28 28 29 29 29 30 32 33 34 33 32 30 30 30 29 28 28 28 26 24 24 23 21 21 21 19 18
24 24 25 25 25 25 25 25 24 23 23 23 23 24 24 25 26 27 28 29 30 30 31 32 31 29 27 26 26 26 25 25 27 30 30 29 28 29 30 30 30 30 32 33 34 34 33 31 30 31 30 29 29 30 28 26 25 24 22 21 21 20 19
24 25 25 26 26 26 25 25 24 24 23 22 22 23 24 25 26 27 28 29 30 31 31 31 30 29 27 26 25 25 27 28 29 29 29 28 28 29 30 30 30 31 32 33 34 34 34 32 31 31 32 30 30 31 29 28 27 25 23 22 22 21 20
25 26 26 26 26 26 26 26 25 24 22 21 21 22 23 24 25 26 27 28 29 30 30 30 29 27 26 26 26 25 27 30 29 28 27 28 29 29 28 28 29 31 32 34 34 34 34 34 33 33 32 31 31 31 30 29 28 26 25 23 22 21 21
26 27 27 27 27 27 27 26 25 24 23 22 22 23 24 24 25 26 27 28 29 30 30 29 28 27 26 26 26 26 26 29 29 28 27 27 28 29 28 28 28 29 31 33 33 33 32 32 32 32 31 31 31 31 31 30 29 28 26 24 22 22 22
27 28 28 28 28 27 26 26 25 24 23 23 23 24 24 25 25 26 27 28 30 30 30 29 27 26 25 26 26 26 27 28 30 29 27 25 26 27 27 28 28 29 30 31 31 31 30 29 29 30 30 31 32 32 32 31 29 29 28 25 23 23 23
28 29 29 30 29 28 26 25 24 24 23 23 24 25 25 25 26 26 27 28 29 30 29 28 27 26 25 25 26 26 27 28 29 29 28 25 24 26 27 28 28 28 29 30 30 30 29 29 29 29 30 31 32 33 33 32 31 30 28 25 23 23 24
29 30 30 31 30 29 27 26 24 24 23 24 25 25 26 26 26 26 27 28 29 29 28 27 26 26 26 25 25 25 27 28 28 29 29 27 25 25 27 28 28 28 29 29 29 30 30 30 30 30 30 32 33 33 34 34 33 31 27 25 25 25 25
30 30 31 31 31 30 28 27 25 24 23 24 25 25 25 26 26 26 27 28 28 28 28 27 26 24 24 24 24 25 25 26 27 28 28 28 26 25 25 28 28 28 29 30 30 31 32 32 31 31 32 33 33 33 34 35 33 31 29 28 27 27 26
30 31 31 31 31 30 29 27 25 24 24 24 25 25 25 25 26 26 27 27 28 28 27 27 27 24 22 22 24 25 25 25 26 28 28 28 28 26 25 26 28 28 29 30 31 33 33 33 33 32 32 33 33 33 35 36 34 33 32 30 29 27 26
31 31 31 32 32 31 29 27 26 24 24 24 24 25 25 25 25 25 26 26 28 28 28 27 27 26 23 21 22 24 25 25 26 27 28 28 28 28 26 25 26 28 29 30 31 33 34 34 34 33 32 34 34 34 36 37 35 34 33 32 30 27 26
32 32 32 32 32 31 30 28 26 26 25 25 25 25 25 25 24 24 24 25 26 28 28 28 28 27 25 23 22 23 24 25 25 26 27 28 28 28 27 26 25 26 28 29 31 33 34 35 35 34 34 35 35 35 36 37 36 35 36 34 31 29 28
33 33 32 32 32 31 29 28 27 27 27 27 27 27 26 26 25 24 24 24 25 26 27 28 29 28 27 25 23 23 23 24 25 25 26 27 27 27 27 27 27 26 26 28 31 32 34 35 36 36 35 35 35 35 34 36 37 37 36 34 33 33 32
34 33 33 33 32 31 30 29 28 28 28 28 28 28 28 27 26 25 24 24 24 24 25 26 28 29 29 27 25 24 23 23 24 25 25 26 27 27 26 26 26 27 27 27 29 32 34 35 36 37 36 34 35 35 33 36 40 38 36 36 36 35 35
35 34 34 34 33 32 31 30 30 30 30 30 30 29 29 28 27 27 26 25 24 24 24 25 26 27 28 29 27 25 24 23 23 23 24 25 27 27 27 26 26 26 27 27 27 30 33 34 35 35 35 34 35 36 35 37 40 39 38 38 38 36 36
36 36 35 35 34 33 32 32 32 32 32 32 32 32 31 30 29 28 27 26 26 25 24 24 25 26 27 28 28 27 26 24 24 23 23 23 25 26 27 27 26 25 26 27 27 28 30 32 33 33 34 33 34 37 38 39 40 40 40 39 39 37 36
36 36 36 35 35 34 34 34 34 35 35 35 35 34 33 32 31 29 28 28 28 27 27 26 25 26 27 27 27 28 27 26 24 24 23 22 23 25 25 26 26 26 25 26 27 28 29 31 32 33 33 33 34 36 39 40 41 41 40 40 40 39 37
37 37 37 36 36 36 36 36 36 36 37 37 36 36 35 34 33 32 31 30 30 29 29 28 27 26 27 27 27 27 27 27 26 24 24 22 21 22 24 25 26 27 27 26 27 27 28 30 32 33 32 33 35 36 37 38 40 41 40 39 39 39 38
38 38 38 37 37 37 37 37 37 38 38 38 38 37 37 36 34 34 34 33 32 31 30 30 29 28 27 27 27 28 27 28 27 26 25 24 22 22 23 24 24 26 27 28 27 27 27 29 31 32 33 34 35 36 36 37 39 40 40 40 40 40 38
38 38 38 38 38 38 38 38 38 39 39 39 39 39 38 37 36 36 35 35 34 33 33 32 32 31 29 27 27 28 28 28 28 28 27 26 25 23 23 24 24 24 25 27 27 27 27 28 29 32 34 35 35 35 36 37 38 40 41 41 41 40 39
38 38 38 38 38 38 38 39 39 39 40 40 40 39 39 39 39 38 37 37 36 36 35 34 34 34 33 31 29 29 29 29 29 29 29 28 27 26 26 26 26 25 25 25 27 28 28 28 29 31 34 36 36 35 36 36 38 39 39 39 40 40 39
38 38 37 37 38 38 39 39 40 40 41 41 41 41 41 41 41 41 40 40 39 39 39 38 37 36 36 35 32 30 30 31 30 30 30 29 29 29 28 27 28 28 27 26 25 26 27 27 28 30 32 34 35 36 36 35 35 37 37 37 39 40 40
37 38 38 38 39 39 40 40 41 41 41 42 42 42 43 43 43 43 43 43 42 42 42 41 40 39 38 37 35 32 31 31 32 32 32 31 31 31 30 29 29 29 29 27 25 26 26 27 28 29 30 32 34 36 38 37 35 36 37 38 38 39 41
38 39 39 39 40 41 41 42 42 43 43 43 43 44 44 44 44 45 45 45 45 44 44 44 43 42 41 39 37 35 33 32 32 33 33 33 32 32 31 31 31 30 29 28 27 26 26 26 27 29 29 31 34 36 38 38 38 37 37 38 38 40 42
39 40 40 41 41 42 42 43 43 44 44 44 45 45 46 46 47 47 47 48 48 47 47 46 45 44 43 42 40 38 36 34 33 33 34 35 34 33 33 32 33 32 30 29 28 27 27 27 27 28 29 31 33 36 37 38 39 39 38 38 39 41 42
41 41 41 42 42 42 43 43 44 44 45 46 46 47 48 48 49 50 50 50 51 51 50 49 48 47 46 45 43 41 40 38 36 34 34 35 36 35 34 34 34 34 33 31 29 29 29 28 28 29 31 32 33 35 36 37 38 39 38 38 38 40 40
40 40 40 40 41 41 41 42 42 43 44 45 46 46 47 48 49 49 50 50 51 51 51 51 50 50 49 48 47 45 43 42 41 38 36 36 36 37 36 35 35 35 35 33 32 31 31 30 29 30 32 32 32 33 34 35 37 37 37 37 38 39 39
38 38 39 39 39 40 40 41 42 43 44 45 46 47 48 49 49 50 50 51 51 52 52 52 51 51 50 50 49 48 46 44 44 43 41 38 37 38 37 37 36 36 36 36 35 34 33 32 32 32 32 32 32 32 32 33 34 35 36 37 38 39 39
38 39 39 40 40 41 42 43 44 45 46 47 49 50 51 52 53 53 54 54 55 55 55 55 54 54 53 52 51 50 48 46 45 45 44 42 40 40 39 38 37 36 36 37 36 35 34 33 33 33 33 32 31 30 30 31 33 34 35 36 38 38 38
39 39 39 40 40 41 43 44 45 46 48 49 51 52 54 55 56 57 58 58 59 59 59 59 59 58 57 56 54 53 51 49 46 45 44 43 42 42 41 40 40 38 36 36 37 37 34 33 33 34 34 33 32 30 28 29 32 34 36 38 39 38 37
38 38 39 39 40 42 43 44 46 47 48 50 51 52 54 55 56 57 58 59 60 61 61 62 62 62 61 60 59 56 54 52 49 47 45 43 42 42 42 42 42 41 39 37 37 38 37 35 36 37 36 35 35 34 31 29 30 33 36 38 39 38 39
36 36 37 38 39 40 41 42 43 44 45 47 48 49 50 52 53 54 56 57 58 59 60 60 61 61 61 61 60 59 56 54 51 49 47 45 43 42 43 43 43 43 42 39 38 38 39 39 39 39 38 37 35 34 33 31 29 31 35 37 39 39 41
33 34 34 35 36 37 37 38 39 40 41 42 43 44 45 47 48 49 51 52 53 55 56 56 57 57 57 57 57 57 56 54 52 49 47 45 44 43 43 43 44 44 44 42 40 39 40 41 40 38 37 37 34 33 33 33 31 31 33 34 36 37 39

ECMWFFLT1_500_spd_102.txt.gz
Wind_Speed
18 18 18 19 19 20 21 21 21 21 20 21 21 21 21 21 22 23 23 24 24 24 24 25 25 25 25 26 26 27 26 26 26 26 26 27 27 27 28 29 30 30 30 30 31 32 32 33 35 36 36 35 35 33 33 33 33 32 32 30 29 28 27
18 18 18 19 19 20 20 21 21 21 21 21 21 21 21 22 22 22 23 23 24 25 25 25 26 26 26 26 27 27 28 28 27 27 27 28 29 29 28 28 28 28 29 30 31 32 33 33 35 37 36 36 36 35 34 34 34 34 33 32 31 29 28
18 18 19 19 20 20 20 21 21 22 22 22 22 22 22 22 22 22 23 24 24 25 26 26 27 27 27 28 28 28 28 29 29 28 28 28 30 30 29 28 28 28 29 30 31 32 33 35 37 38 37 37 36 35 36 35 35 35 34 32 31 30 29
18 19 19 20 20 20 20 21 22 22 23 23 23 23 23 23 23 23 23 24 25 26 26 27 27 28 28 28 29 29 29 28 28 28 28 28 29 30 29 29 29 30 31 32 32 33 34 36 37 37 37 37 36 35 36 36 37 37 35 32 32 32 31
19 19 20 20 20 21 21 22 22 23 24 24 24 24 23 23 23 23 24 25 26 26 27 27 27 28 28 29 29 29 29 28 28 28 28 28 29 30 30 29 29 30 31 32 33 34 34 34 34 35 35 35 35 35 36 37 38 39 36 33 34 34 32
20 21 21 21 21 22 22 22 23 24 24 25 25 24 24 23 23 24 25 26 26 26 26 27 27 28 28 29 29 29 29 28 28 27 27 28 29 30 30 29 30 30 31 32 33 34 33 32 32 33 34 33 34 34 36 38 38 40 38 34 34 35 34
22 22 22 22 22 23 23 23 24 24 25 25 25 25 25 24 24 25 25 26 26 26 26 26 27 27 28 28 28 29 29 29 28 27 27 28 29 30 30 30 30 30 30 31 32 32 32 31 29 30 33 34 33 33 35 37 39 40 39 36 36 37 36
22 23 23 23 23 23 24 24 25 25 26 26 26 26 25 25 25 25 26 26 26 26 26 26 26 27 27 28 28 28 28 28 28 28 28 28 29 30 29 29 29 29 29 30 31 30 31 31 28 27 31 33 33 33 34 36 38 39 39 37 39 39 37
23 23 23 24 24 24 25 25 25 26 26 27 27 26 26 26 26 26 26 26 26 26 26 26 26 26 27 28 28 28 28 28 28 28 28 28 29 29 28 28 28 27 27 28 29 28 29 31 28 25 27 31 33 33 34 35 37 39 40 40 42 41 39
23 23 23 24 24 25 25 25 26 26 27 27 27 27 27 27 26 27 27 27 27 26 26 26 26 26 27 27 28 28 28 28 28 28 28 28 29 29 27 27 28 27 27 27 27 27 28 29 28 26 25 28 32 33 33 36 38 39 41 44 45 44 42
23 23 24 24 25 25 25 26 26 27 27 27 27 27 27 27 27 27 28 28 28 27 27 27 27 27 27 27 28 28 28 28 27 27 27 28 28 29 27 26 27 28 28 27 26 26 27 28 27 26 25 26 30 31 32 36 39 40 41 45 47 45 44
24 25 25 26 26 26 26 26 26 26 27 27 27 27 28 28 28 28 28 29 29 29 29 29 29 28 28 28 28 29 29 29 28 27 27 27 27 27 27 26 27 28 29 29 27 26 26 27 26 26 26 25 28 31 33 34 38 40 41 45 46 45 44
26 27 27 28 28 28 28 27 27 27 27 27 27 27 28 28 28 29 29 30 30 30 30 30 30 29 29 29 29 29 29 30 29 28 28 28 28 27 26 25 26 27 29 30 29 28 27 27 27 27 26 25 25 29 33 34 35 37 39 42 44 42 42
28 29 29 30 30 30 29 29 28 28 28 28 28 28 29 29 29 30 30 31 31 31 32 32 31 31 30 30 30 30 30 31 31 30 29 29 29 28 27 25 25 26 27 28 30 30 29 28 27 27 26 25 25 27 31 33 33 35 36 38 41 41 41
30 31 31 31 31 31 31 31 31 30 30 30 30 30 30 30 30 31 31 32 32 33 33 33 33 33 32 32 31 31 31 32 32 32 32 31 30 30 28 27 26 25 26 26 28 30 31 30 28 27 27 26 26 26 29 31 32 34 37 39 40 41 42
32 32 32 32 32 32 33 33 33 32 32 32 32 32 31 32 32 32 33 33 33 34 35 35 35 35 35 34 33 32 32 32 33 33 33 33 32 32 31 29 28 26 26 25 26 29 30 30 29 28 27 27 26 26 28 31 31 31 35 38 39 39 41
34 34 34 33 33 34 34 34 34 34 34 34 34 34 33 33 33 34 34 34 35 35 35 36 36 37 37 36 35 34 33 33 33 33 34 34 34 33 32 32 30 29 27 26 25 27 29 30 29 29 28 27 27 27 27 29 32 31 30 33 37 38 38
35 35 35 35 35 35 35 36 36 36 36 36 35 35 35 35 35 35 35 35 35 35 36 36 37 38 38 38 38 37 36 35 34 34 34 35 34 34 33 33 33 32 30 28 27 27 28 29 28 29 29 28 28 27 26 27 30 32 31 31 35 38 37
36 36 36 36 36 37 37 37 37 36 36 36 36 36 36 36 36 37 37 37 37 37 37 37 37 38 39 40 40 40 39 38 37 36 36 35 35 34 34 33 33 33 32 31 29 28 28 28 28 28 28 29 29 28 27 28 28 30 31 31 32 35 38
37 36 36 37 37 37 37 37 37 37 36 36 36 36 36 37 37 38 38 38 39 39 39 39 39 39 40 41 41 41 42 41 40 39 38 37 36 35 34 34 34 34 33 33 32 30 29 29 28 27 27 28 30 29 28 28 27 28 29 30 30 32 36
37 36 37 37 37 37 38 38 37 37 36 36 36 37 37 37 38 38 39 39 40 40 41 41 41 41 41 42 43 43 43 43 43 42 41 40 39 37 36 35 34 34 34 34 34 33 31 30 29 28 27 27 28 29 30 29 28 30 31 31 32 34 35
37 37 37 37 38 38 38 37 36 36 36 37 37 37 38 38 39 39 40 40 41 41 42 42 42 42 42 42 43 44 44 45 45 44 43 43 42 40 39 37 36 36 36 35 35 34 34 33 31 29 28 28 28 28 30 30 29 32 33 33 32 33 36
36 37 37 37 38 38 37 36 36 36 36 37 38 38 38 39 39 40 40 41 41 42 42 42 42 42 42 43 43 43 44 45 45 45 45 44 44 43 42 40 39 38 37 36 36 36 35 35 34 32 30 30 29 28 29 30 30 31 34 35 33 31 33
37 37 37 38 38 37 36 36 36 36 37 37 38 38 39 39 39 39 40 40 41 41 41 42 42 42 42 43 43 43 44 44 45 46 46 46 45 45 44 43 42 41 40 39 38 37 37 37 36 35 33 32 31 30 29 30 31 32 33 34 34 32 31
37 38 38 38 38 37 36 36 36 37 37 38 38 38 38 38 38 38 39 39 40 40 41 41 42 42 43 43 43 44 44 44 45 46 46 47 47 46 46 46 45 44 43 42 40 39 38 38 38 37 36 34 33 32 31 30 30 32 33 33 34 33 32
38 39 39 38 37 36 36 36 37 37 38 38 38 38 37 38 38 38 39 39 40 40 41 42 43 44 45 45 46 46 47 47 47 47 48 48 48 48 48 48 47 47 46 45 43 41 39 39 39 39 38 37 35 34 33 32 31 31 32 33 33 33 33
39 39 39 37 36 35 35 36 37 37 37 37 37 37 37 38 38 38 39 40 41 43 44 45 46 47 48 48 49 49 50 50 50 51 51 51 51 51 50 50 49 48 47 47 46 44 41 40 39 40 40 39 37 36 35 34 32 32 32 32 33 34 34
39 39 38 36 35 34 35 36 36 36 36 36 36 37 37 38 39 40 42 43 45 46 46 46 47 47 47 48 48 48 49 50 51 51 52 53 53 54 54 54 52 51 50 49 48 46 43 41 40 40 41 40 39 38 37 35 34 34 33 32 33 34 35
39 38 37 36 34 34 35 36 36 36 36 36 36 37 38 39 41 42 43 44 44 44 44 44 44 45 46 46 47 48 49 49 50 50 51 51 52 53 54 55 55 55 53 52 51 49 46 43 41 41 41 41 41 40 39 38 37 35 34 34 34 35 36
37 36 36 35 34 35 36 36 35 35 35 35 36 38 39 40 41 42 41 41 41 42 43 43 44 45 46 47 48 49 50 50 51 51 52 52 52 52 53 54 55 56 56 55 54 52 50 47 43 42 42 42 42 41 40 40 39 37 36 36 35 35 36
36 35 35 34 35 36 36 35 34 35 35 36 37 38 39 39 39 39 39 40 41 42 43 44 45 46 47 48 49 49 50 51 51 52 52 53 53 53 53 53 54 54 55 56 56 54 52 50 47 44 43 42 43 43 42 41 40 39 37 37 37 36 36
34 34 34 35 35 35 35 34 34 34 35 36 37 37 37 37 38 38 39 40 41 42 43 44 45 45 46 47 47 48 49 50 51 52 52 52 53 53 53 53 54 54 54 55 56 55 53 52 51 48 44 43 44 44 44 43 42 41 39 38 38 37 37
34 34 34 34 34 33 33 33 34 34 34 35 35 35 36 36 37 38 39 41 42 42 43 44 44 45 45 46 46 47 48 48 49 50 51 51 52 52 52 52 53 53 54 54 55 55 54 54 54 51 46 44 45 46 46 45 44 43 42 41 41 39 38
33 33 32 32 32 32 32 32 33 33 33 33 33 34 35 36 37 39 40 41 42 42 43 44 44 44 45 46 46 46 46 47 47 48 49 49 49 50 50 50 51 52 52 52 53 54 54 54 54 52 48 46 46 47 48 47 45 43 41 42 42 42 40
31 30 30 30 31 31 31 31 31 31 31 32 33 34 35 37 38 39 40 41 42 42 43 43 44 44 45 46 46 46 46 47 47 47 47 47 47 46 46 47 47 48 49 49 50 52 52 52 53 52 50 49 48 48 49 50 48 46 44 43 42 41 39
29 29 29 29 30 29 29 29 29 30 31 32 33 34 36 37 39 40 40 41 41 41 42 42 43 43 44 45 46 46 47 47 48 48 48 46 44 43 42 42 42 42 43 43 44 47 48 49 50 48 47 48 48 47 49 52 51 50 48 45 42 40 40
27 28 28 28 28 28 27 28 29 30 31 32 33 35 36 37 38 39 39 40 40 40 41 41 42 42 43 44 45 45 46 47 48 49 50 48 44 40 38 37 36 35 36 36 37 40 43 46 47 44 40 42 43 42 43 49 52 52 51 49 45 41 40

ECMWFFLT1_500_spd_105.txt.gz
Wind_Speed
16 16 16 17 17 17 18 18 18 18 19 19 19 19 20 20 21 22 22 23 23 24 24 24 24 24 25 26 26 27 27 27 27 26 26 26 26 26 27 27 27 28 29 29 29 28 27 27 30 31 30 30 31 31 30 32 35 36 37 37 37 35 34
17 17 17 17 18 18 19 19 19 19 19 19 20 20 21 21 21 22 23 23 23 24 24 24 24 24 25 26 26 27 28 28 27 27 26 26 26 26 26 26 27 28 29 29 29 29 28 27 28 29 30 31 31 30 31 33 35 37 38 38 38 36 34
17 17 17 18 18 19 19 20 20 20 20 20 20 20 21 22 22 23 24 24 24 24 24 24 25 25 25 26 26 27 27 28 28 27 27 26 26 27 27 27 27 28 29 29 29 29 29 28 28 29 31 32 32 30 32 34 37 38 38 39 39 37 34
17 17 18 18 18 19 19 20 20 20 21 21 21 21 22 23 23 24 24 24 24 24 24 25 25 26 26 26 27 27 27 27 28 28 27 27 27 27 27 27 28 29 29 30 30 29 29 30 30 29 32 34 34 33 33 34 37 39 38 38 39 38 36
17 17 18 18 19 19 20 20 21 21 21 22 22 23 23 24 24 25 25 25 25 25 25 25 26 26 27 27 27 27 27 28 28 28 28 27 27 27 28 28 28 29 30 30 30 30 30 30 30 30 31 34 35 35 35 34 36 40 40 39 38 38 38
17 17 18 18 19 20 20 21 22 22 22 23 23 24 25 25 25 26 26 26 26 26 26 26 27 27 27 27 28 28 28 28 29 29 28 28 28 28 28 29 29 29 30 30 31 31 30 30 30 30 30 32 33 33 34 35 35 38 39 38 36 36 39
17 18 18 19 19 20 21 21 22 23 23 23 24 25 25 26 26 26 26 26 26 27 27 27 27 28 28 28 28 28 28 29 29 29 29 29 29 29 29 29 30 30 30 30 30 30 30 30 30 30 30 31 32 32 32 31 31 34 36 35 35 35 38
17 18 19 19 20 20 21 22 23 23 24 24 25 25 26 26 27 27 27 27 27 27 28 28 28 28 28 28 29 29 29 29 29 29 30 30 30 29 29 29 30 30 30 29 28 29 29 29 29 29 30 29 29 31 31 29 27 30 34 34 35 35 37
18 19 20 20 21 21 22 23 23 24 24 25 26 26 26 27 27 27 27 27 27 28 28 29 29 29 29 29 29 30 30 30 30 30 30 30 30 30 30 29 30 31 31 30 28 28 28 28 28 29 30 29 29 29 31 30 26 26 32 35 34 34 36
19 20 20 21 22 23 24 25 25 25 25 26 26 27 27 27 27 28 28 28 28 28 29 29 29 30 30 30 30 30 31 31 31 31 31 30 30 31 30 30 30 31 32 31 29 29 28 28 28 28 29 29 30 29 29 30 27 24 29 34 34 34 35
21 21 22 23 23 24 25 26 26 26 27 27 27 27 28 28 28 28 29 29 29 29 29 29 30 30 30 30 31 31 32 32 32 32 32 31 31 31 31 31 31 31 32 32 31 30 29 28 27 28 29 29 30 30 29 29 27 24 25 30 33 35 35
22 23 24 24 25 26 27 28 28 28 29 29 29 29 30 30 30 30 29 30 30 30 30 30 30 30 31 31 32 32 33 33 33 33 34 33 32 32 31 32 32 32 32 33 32 31 30 30 29 27 28 29 29 30 29 29 27 24 24 28 32 35 35
24 25 26 26 27 28 29 30 31 31 31 30 30 31 31 32 32 32 31 31 31 31 31 30 31 31 32 32 32 33 33 34 34 34 35 35 34 34 33 33 33 32 32 33 33 33 32 31 31 29 28 28 28 30 30 30 28 25 23 26 31 34 33
26 27 28 28 29 30 30 31 32 33 33 32 32 32 32 33 33 33 33 33 33 32 32 32 32 32 33 33 34 34 34 34 35 35 35 36 36 36 35 34 34 33 33 33 33 34 33 33 32 31 30 28 28 28 30 30 29 27 25 24 28 33 33
28 29 30 30 31 32 32 33 33 34 34 34 33 33 34 34 35 35 35 34 34 34 34 33 33 33 34 34 34 35 35 35 35 35 36 36 37 37 37 36 36 35 34 33 34 35 34 34 34 33 31 30 28 27 29 30 30 31 30 25 25 31 35
30 31 32 32 33 33 34 34 35 35 35 35 35 35 36 36 36 36 35 35 35 35 35 35 35 35 35 35 35 35 35 35 36 36 36 37 37 37 38 38 38 37 36 34 35 36 36 35 35 34 33 32 30 28 28 29 30 31 32 29 27 29 32
31 32 33 34 34 35 35 36 37 37 37 37 37 37 37 37 37 37 37 36 36 36 36 36 36 36 36 36 36 36 36 37 37 37 37 37 38 38 38 38 39 39 38 37 35 36 37 37 36 35 34 33 32 30 28 28 29 30 32 32 30 30 30
33 34 35 35 35 35 36 38 38 38 38 39 39 39 38 38 38 38 38 38 37 37 37 37 37 37 37 37 37 38 38 38 38 38 39 39 39 39 39 39 40 40 40 39 38 36 37 37 38 37 36 35 34 32 30 28 28 30 32 32 32 31 29
34 35 35 35 36 37 38 38 38 39 39 39 39 39 38 38 38 38 38 38 38 37 37 38 38 38 38 38 38 38 38 39 39 39 39 40 40 40 40 41 41 41 41 41 40 39 38 38 38 38 37 37 36 34 32 30 29 29 31 32 33 33 30
35 36 36 36 37 38 39 39 39 39 39 39 38 38 38 37 37 37 38 38 38 38 38 38 38 38 38 38 38 38 38 39 40 40 41 41 41 41 42 42 42 42 42 42 42 41 40 39 39 39 39 38 37 36 35 33 31 30 30 31 33 35 34
36 36 37 38 39 40 39 38 38 39 38 38 38 37 37 37 37 37 38 38 38 38 38 37 37 37 37 38 38 39 39 40 40 41 42 43 43 43 43 43 44 44 44 43 43 42 42 41 40 39 40 40 39 37 36 35 34 32 31 31 31 33 36
37 38 39 40 41 40 38 38 38 38 38 37 37 37 37 37 37 38 38 38 38 38 38 37 37 37 37 38 38 39 40 41 41 42 43 44 44 45 45 45 45 45 45 45 45 44 44 43 42 40 40 41 41 39 38 37 36 35 33 32 31 31 34
38 39 39 40 40 38 38 38 38 37 37 37 37 37 37 37 37 38 38 38 38 38 38 38 38 39 39 39 40 41 42 43 44 44 45 45 46 47 48 48 48 48 48 47 47 47 46 45 45 43 41 41 42 41 40 38 37 36 35 34 32 32 33
39 39 39 39 38 37 37 37 37 37 38 38 37 37 37 37 37 37 37 38 38 38 38 39 40 40 41 42 43 43 44 44 45 46 46 47 47 48 49 50 51 51 51 51 50 49 49 48 47 46 44 43 43 43 42 41 39 38 37 36 34 33 32
38 38 39 38 37 36 37 37 37 38 38 38 37 37 37 37 37 37 37 38 38 39 40 41 42 42 43 43 43 43 43 43 44 44 45 45 46 47 47 48 50 51 52 53 52 52 51 51 50 49 47 45 44 44 44 43 41 40 39 38 37 35 33
38 38 37 36 35 36 36 37 37 38 37 37 36 36 36 36 37 37 37 38 39 40 41 42 42 42 41 41 41 41 42 42 42 43 43 44 45 46 46 47 48 49 50 52 53 53 53 53 53 52 50 49 46 46 46 45 43 42 40 40 38 37 36
37 37 35 34 35 35 36 37 37 37 36 35 35 35 36 36 36 37 38 39 40 41 41 40 40 40 39 39 40 40 41 42 42 43 44 45 46 47 48 48 49 49 50 51 52 53 53 53 54 54 53 52 50 47 46 46 46 44 42 41 40 38 38
35 34 33 33 34 35 36 36 36 35 34 34 35 35 35 35 36 37 38 40 40 39 39 38 38 38 39 39 40 41 42 43 44 45 46 47 48 49 50 51 51 52 52 52 53 53 53 54 54 54 54 54 53 50 48 47 47 46 45 43 42 40 39
32 32 32 33 34 34 35 35 35 34 34 34 34 34 34 35 36 38 38 38 38 37 37 37 38 38 39 40 41 42 44 44 45 46 47 48 49 50 51 52 53 54 54 54 54 54 54 54 54 54 54 53 54 53 50 48 48 47 47 46 44 42 41
30 30 31 32 33 34 34 34 33 33 33 33 33 34 35 36 37 37 36 36 35 35 36 36 37 38 39 40 41 42 43 44 45 46 47 48 49 51 52 52 53 54 54 55 55 55 55 54 54 54 53 53 53 54 52 50 49 48 48 48 46 44 42
28 29 30 31 32 33 33 32 32 32 32 32 33 34 35 35 35 35 34 34 34 35 36 37 38 39 39 40 41 42 43 44 45 46 47 48 49 49 50 51 52 52 53 54 54 54 54 53 53 53 53 52 52 53 53 52 50 49 48 49 48 46 43
27 28 30 31 31 31 31 31 31 31 31 32 33 34 34 34 33 33 33 34 34 35 36 37 38 39 39 40 41 42 42 43 44 44 45 46 47 48 49 50 51 51 52 52 52 52 52 52 51 51 51 51 51 52 53 54 52 50 49 49 49 46 44
27 28 29 30 30 31 30 30 30 30 31 32 32 32 32 32 32 32 33 34 35 36 37 37 38 39 39 40 41 41 42 42 42 43 44 45 46 47 48 49 50 51 51 50 50 50 49 49 49 49 48 48 49 51 52 52 52 51 50 50 50 48 46
27 28 29 29 30 29 29 29 30 31 31 31 31 30 30 31 31 32 33 34 35 36 37 38 38 39 39 40 40 40 41 41 42 42 43 44 45 46 48 49 51 51 50 48 46 45 44 44 45 45 44 44 45 48 49 49 51 52 51 51 50 49 49
27 28 28 28 28 28 28 29 30 30 30 29 29 29 30 30 31 32 33 34 35 36 37 38 38 39 40 40 40 40 41 41 42 42 42 43 44 46 48 50 51 51 49 45 41 39 37 36 37 37 37 38 39 43 44 42 44 49 52 52 52 51 50
27 27 27 26 27 27 28 29 29 29 28 28 29 29 29 30 31 32 34 35 35 36 37 38 38 39 39 39 40 41 41 41 41 41 42 43 43 45 46 48 50 49 46 42 38 34 31 29 27 27 28 28 31 34 35 31 33 41 49 53 53 51 50
25 25 25 25 26 27 28 28 28 27 27 28 28 28 29 30 31 32 33 34 35 36 36 37 38 38 38 39 39 40 40 41 41 41 42 43 43 44 45 47 49 48 43 40 36 33 29 25 21 20 19 20 21 25 29 28 26 31 39 47 52 53 51

ECMWFFLT1_500_spd_108.txt.gz
Wind_Speed
14 14 14 15 15 15 15 15 15 16 16 17 17 18 19 19 20 20 21 21 22 23 24 24 24 24 25 25 25 25 25 25 25 26 26 27 27 27 27 27 27 27 26 26 25 25 26 26 27 28 28 28 28 30 30 30 30 31 31 31 30 30 32
14 14 15 15 15 15 15 15 15 16 16 17 17 18 19 19 20 21 21 22 23 23 24 24 25 25 25 25 25 25 25 26 26 26 26 27 27 27 28 28 28 28 27 26 26 26 26 26 27 28 29 28 28 29 30 30 30 31 31 31 30 30 31
14 14 15 15 15 15 15 15 15 16 16 17 18 18 19 19 20 21 21 22 23 24 25 25 25 25 26 26 26 26 26 26 26 26 27 27 27 28 28 28 29 29 28 27 27 27 27 26 26 27 29 29 29 29 30 31 31 31 32 32 32 31 32
14 14 15 15 15 15 16 16 16 16 17 17 18 18 19 20 20 21 21 22 23 24 25 25 25 26 26 26 26 27 27 27 27 27 27 27 28 28 29 29 29 30 29 29 28 28 28 27 27 27 28 30 29 29 30 32 32 32 33 34 36 34 33
14 14 15 15 15 16 16 16 16 17 17 17 18 19 20 20 21 21 22 22 23 24 24 25 25 26 26 27 27 27 27 28 28 27 27 27 28 28 29 29 30 30 30 30 30 30 30 29 28 27 28 30 29 28 30 32 32 32 32 34 36 37 36
15 15 15 15 15 16 16 16 16 17 18 18 19 20 20 21 22 23 23 23 24 24 25 25 26 26 26 27 27 27 27 28 28 28 28 28 28 28 29 30 30 30 31 31 30 31 31 30 29 28 28 29 29 28 29 31 32 32 32 33 35 37 37
15 15 15 15 15 16 16 17 17 18 19 20 21 21 22 23 24 24 24 25 25 25 25 26 26 27 27 27 27 27 27 28 28 28 29 29 29 29 29 30 30 30 30 30 31 31 31 31 31 30 29 28 28 28 29 31 32 31 31 33 35 35 36
15 15 15 15 15 16 16 17 18 19 20 21 22 23 24 25 26 26 27 27 27 27 27 27 27 27 27 28 28 28 28 28 29 29 29 30 30 30 30 30 30 31 31 30 30 31 32 32 32 32 31 29 28 27 28 31 32 32 32 33 34 35 36
16 16 16 16 16 16 17 18 19 20 21 23 24 25 26 27 28 29 29 29 29 29 29 28 28 28 28 29 29 29 29 30 30 30 30 31 31 31 31 31 31 31 31 31 31 31 32 33 33 33 33 32 31 28 27 29 31 31 33 34 34 35 37
16 16 17 17 17 18 18 19 20 21 23 24 26 27 28 29 30 30 30 30 30 30 30 30 30 30 30 30 30 31 31 31 32 32 32 32 32 32 33 33 33 32 32 32 32 32 32 32 33 34 35 34 34 32 29 28 28 30 32 34 35 36 36
17 17 18 19 19 19 20 20 22 23 24 26 27 29 30 30 31 31 31 31 31 31 31 31 32 32 32 32 33 33 33 33 33 33 33 33 33 34 34 34 34 34 33 33 34 34 33 33 33 34 35 36 36 35 33 30 27 28 31 33 34 36 36
18 18 19 20 20 21 21 22 23 24 25 27 28 30 31 32 32 32 32 32 32 32 32 33 33 33 34 34 34 35 35 35 35 35 35 35 34 34 35 35 35 35 35 35 35 35 35 34 33 33 35 36 36 36 36 34 30 28 31 32 33 35 36
19 20 21 22 22 22 23 24 24 26 27 28 30 31 32 32 33 33 32 33 33 34 34 34 34 34 35 35 35 36 36 36 36 37 37 36 36 36 36 36 36 36 36 36 36 37 37 37 36 35 35 36 37 37 38 37 33 30 31 33 32 34 36
20 21 22 23 23 24 24 25 26 27 29 30 31 32 32 33 33 33 34 34 35 35 34 34 34 35 35 36 36 36 37 37 37 37 38 38 37 37 38 38 38 38 38 38 38 38 37 38 38 37 37 37 37 38 39 39 37 32 31 33 34 34 36
21 22 23 24 25 25 26 27 28 29 31 32 32 33 34 34 33 34 35 35 35 35 35 34 34 35 35 35 36 36 37 37 38 38 38 39 39 39 39 39 40 40 40 39 39 39 39 39 39 38 38 39 38 38 40 41 40 36 33 33 34 34 36
22 23 24 25 26 27 28 29 30 31 33 34 34 35 35 34 34 35 35 36 36 35 35 34 34 34 35 35 36 36 37 37 38 38 39 39 39 40 40 40 41 41 41 41 41 41 41 41 41 40 39 40 40 39 40 42 42 40 36 34 35 35 36
23 24 26 27 27 28 29 31 32 33 34 35 36 36 36 35 35 36 36 36 35 35 34 34 35 35 35 36 37 37 38 38 38 38 39 39 40 40 40 41 41 41 41 42 42 42 43 43 43 43 42 41 42 41 41 41 43 43 40 35 36 37 36
25 26 27 28 29 30 31 32 33 34 36 37 37 37 36 35 36 37 37 36 35 35 35 35 35 36 36 37 37 37 38 38 38 39 39 40 40 40 41 41 41 42 42 42 43 43 43 44 44 45 45 44 43 43 42 42 43 44 43 38 36 37 38
26 28 29 29 30 31 32 33 34 35 37 38 38 37 36 36 37 37 36 35 35 35 35 35 36 36 36 37 37 38 38 38 39 39 40 40 41 42 42 42 42 43 43 43 43 43 44 44 45 45 46 46 45 45 44 43 44 45 45 42 38 38 39
28 29 30 30 31 32 33 34 35 36 37 38 37 36 36 37 37 37 36 35 35 35 36 36 36 37 37 37 38 38 39 40 40 41 42 42 43 44 44 45 45 45 45 45 45 45 45 45 45 45 46 46 46 46 45 45 45 46 46 45 41 39 39
29 30 31 31 32 33 34 35 36 37 37 37 37 36 37 37 37 36 36 36 36 36 36 36 37 38 38 39 39 40 40 41 42 43 44 44 45 46 46 47 47 47 48 48 48 48 48 48 47 47 47 47 47 47 47 46 47 47 47 47 45 42 41
30 31 32 32 33 33 34 36 36 37 37 37 37 36 37 37 37 36 36 36 36 37 37 37 37 38 38 39 40 40 41 42 43 43 44 45 45 46 46 47 47 48 48 49 50 50 51 51 50 49 48 49 49 49 48 48 48 48 48 49 48 45 44
31 32 32 33 33 34 35 36 36 37 37 37 36 36 37 37 37 37 37 37 37 38 38 38 38 38 39 40 40 41 42 42 43 43 43 43 44 45 45 46 46 47 48 48 49 50 51 52 53 52 51 51 50 50 50 50 50 50 49 49 49 48 47
32 32 33 33 34 35 36 36 37 37 37 36 36 36 36 36 36 36 37 37 38 38 38 38 39 40 41 41 42 42 42 42 42 42 42 42 43 43 44 45 46 47 47 48 49 49 51 52 53 54 55 54 53 52 51 51 51 52 51 50 49 49 49
33 33 34 34 35 36 36 36 37 36 35 35 35 35 35 36 36 36 37 38 38 38 39 39 40 41 41 42 42 41 41 41 41 41 42 42 43 44 44 45 46 47 48 48 49 50 51 52 53 54 56 56 57 56 55 53 52 52 53 52 51 50 50
34 34 35 35 36 37 36 36 36 35 34 34 34 34 35 35 36 36 37 37 37 38 39 40 41 42 42 41 41 41 41 42 42 42 43 44 44 45 45 46 47 47 48 49 50 50 51 52 53 54 55 57 58 58 58 57 55 53 53 54 53 51 50
35 35 36 37 36 36 35 34 33 33 33 34 33 33 34 34 35 36 36 36 37 38 40 41 41 41 41 41 41 41 42 43 44 44 45 45 46 46 46 47 47 47 48 49 50 51 52 53 53 54 54 56 57 59 59 59 59 56 54 53 54 53 52
36 36 37 37 36 34 32 31 32 32 33 33 32 32 33 33 34 34 35 36 38 39 40 40 40 40 40 40 41 42 43 44 44 45 45 46 46 46 46 47 47 48 49 50 51 52 53 54 54 54 54 55 56 57 59 59 60 59 57 54 53 54 53
36 36 36 35 32 30 29 30 31 32 31 31 31 32 32 32 33 33 35 37 38 39 39 39 38 39 39 40 41 42 43 43 44 44 44 45 45 46 46 46 47 48 49 50 50 52 53 54 55 55 56 56 55 55 56 57 58 59 58 56 53 53 54
35 34 32 30 27 27 28 29 30 30 30 30 31 31 31 31 32 34 36 37 37 37 37 37 37 38 39 40 41 41 42 42 42 42 43 43 44 45 45 46 47 48 49 49 50 51 52 54 55 55 55 55 55 55 54 55 55 56 57 55 54 53 53
31 28 26 24 25 26 28 28 28 29 29 29 29 29 30 31 33 34 35 36 36 36 36 36 37 38 39 40 40 40 40 40 40 40 41 42 43 43 45 45 46 48 49 50 51 52 53 54 55 55 55 54 53 53 52 52 51 52 53 52 52 53 53
24 22 22 24 25 26 26 27 27 28 28 28 28 29 30 32 33 34 35 35 35 35 35 36 37 38 38 38 38 38 38 38 39 39 40 41 41 42 42 43 44 46 47 49 51 52 53 54 54 53 52 51 50 49 49 48 47 47 48 48 49 52 53
21 22 23 24 25 25 25 26 26 27 27 27 28 30 31 32 33 34 34 34 35 35 36 36 37 37 37 37 37 36 36 37 38 38 39 40 40 40 40 41 42 44 45 47 49 51 51 51 50 48 46 45 44 43 42 41 41 41 41 41 42 45 49
21 22 23 23 24 24 25 25 26 26 27 28 29 30 31 32 32 33 33 34 34 35 36 36 36 36 36 35 35 35 36 37 37 38 39 39 39 39 39 40 41 42 44 45 47 49 50 49 46 42 37 35 34 32 31 30 30 32 34 34 33 34 38
21 22 22 22 23 24 24 25 25 26 27 28 29 30 30 31 32 32 33 34 34 35 35 35 35 35 34 33 34 34 36 37 38 39 39 38 38 38 39 40 41 41 43 44 47 50 49 47 41 32 27 28 27 23 21 18 17 20 25 28 29 31 35
20 21 21 22 23 24 24 25 25 26 27 28 28 29 30 30 31 32 33 33 34 34 34 34 33 32 32 32 33 34 36 38 38 38 38 37 38 38 39 40 40 41 43 44 48 50 48 44 36 24 21 26 25 17 13 10 11 13 17 21 24 29 34
20 20 21 22 23 23 24 24 25 26 27 27 28 29 29 30 31 31 32 33 33 33 32 31 31 30 30 32 33 34 36 37 37 37 37 37 38 38 39 40 40 41 43 45 48 51 47 41 31 19 18 24 22 14 8 6 9 9 12 17 21 25 28

ECMWFFLT1_500_spd_111.txt.gz
Wind_Speed
15 15 14 14 13 13 13 13 12 13 13 13 14 14 15 16 16 17 18 18 19 20 20 21 21 22 22 23 23 24 24 24 24 24 24 24 24 24 24 24 25 25 26 26 26 27 26 27 28 29 29 29 29 28 27 26 26 26 26 27 27 27 28
15 15 15 14 14 14 14 14 13 13 14 14 14 15 15 16 17 17 18 19 19 20 21 22 22 23 23 23 24 24 25 25 25 25 25 25 25 25 25 25 25 25 26 27 27 27 27 27 28 29 29 29 29 29 28 27 26 27 28 28 28 28 29
15 15 15 14 14 14 14 14 14 14 14 15 15 15 16 16 17 17 18 19 20 20 21 22 23 23 24 24 25 25 26 26 26 26 26 26 26 26 26 26 26 27 27 27 27 27 27 27 27 28 29 29 29 30 29 28 27 27 27 28 29 29 29
15 15 15 15 14 14 14 15 15 15 15 15 15 15 16 16 17 18 18 19 20 21 22 23 23 24 25 25 25 26 26 26 27 27 26 26 27 27 27 27 27 28 28 28 28 29 29 29 28 28 30 30 29 30 31 29 28 28 27 27 27 29 30
16 16 15 15 15 15 15 15 15 15 15 15 15 15 16 16 17 18 19 20 22 23 23 24 24 25 26 26 26 26 27 27 27 27 28 27 27 28 28 28 28 29 29 29 29 29 30 30 30 29 30 31 30 30 32 32 30 30 30 29 28 28 30
16 16 16 16 16 16 16 16 17 17 17 16 15 16 16 17 18 19 21 22 23 24 25 26 26 27 27 27 28 28 28 28 28 28 29 29 29 29 29 30 30 30 30 31 30 30 30 31 31 30 30 32 31 31 32 33 32 31 31 32 31 29 29
17 17 17 16 17 17 17 18 18 18 18 17 17 17 18 19 20 21 22 23 25 26 27 27 28 29 29 29 30 30 30 30 30 30 30 30 30 30 30 30 31 31 32 32 32 32 32 32 32 32 31 32 32 32 32 33 33 32 32 33 33 32 31
18 18 18 18 18 18 18 18 19 19 19 19 19 20 20 21 22 23 24 25 26 27 28 29 29 30 30 31 31 31 31 32 32 32 32 32 32 32 32 32 32 33 33 34 34 34 34 34 34 34 33 33 33 32 32 33 33 33 34 34 33 34 34
20 20 19 19 19 19 19 19 19 20 20 20 21 21 22 23 24 25 25 26 28 29 29 30 30 31 31 31 32 32 33 33 33 33 33 33 33 33 34 34 34 35 35 35 35 35 36 36 36 36 35 35 34 33 33 33 33 33 34 35 34 34 35
20 20 20 20 20 20 20 20 20 20 21 21 22 23 23 24 25 25 26 28 29 30 30 31 31 31 32 32 33 33 34 34 34 34 34 34 34 34 35 35 36 36 37 37 37 37 38 38 37 37 37 37 37 36 35 34 33 33 34 36 35 34 35
19 19 20 21 21 21 20 20 20 21 21 22 22 23 23 24 25 26 27 29 30 31 31 31 31 32 32 33 33 34 34 34 34 34 35 35 35 36 36 36 37 37 38 38 39 39 40 40 40 39 39 39 39 39 38 36 33 32 35 36 36 36 36
19 20 20 21 21 21 20 20 21 21 22 22 22 22 23 24 25 27 29 30 31 31 31 31 32 32 33 33 33 33 33 34 34 34 34 35 35 36 37 37 38 38 38 39 40 40 41 41 41 41 42 42 42 41 41 40 36 32 35 38 37 37 37
20 20 20 20 20 20 20 21 21 21 22 22 22 22 23 25 27 28 30 30 31 31 31 31 32 32 33 32 32 33 33 33 33 34 34 35 35 36 37 38 38 39 40 40 41 41 42 42 42 43 43 43 44 44 43 43 41 35 35 38 39 38 38
20 20 20 20 20 21 21 22 22 23 23 23 23 24 25 26 28 30 31 31 32 31 31 31 32 32 32 32 32 32 33 33 34 35 35 36 37 37 38 39 39 40 41 41 42 43 43 44 44 44 45 45 45 45 45 45 44 40 37 39 41 40 40
21 21 21 21 22 22 23 23 24 24 25 24 24 25 27 29 30 31 32 33 32 32 31 32 32 32 32 32 33 33 34 35 35 36 37 38 38 39 40 40 41 41 42 42 43 44 44 44 45 45 45 46 46 46 47 47 46 44 41 40 43 43 42
21 22 22 23 23 24 24 25 25 26 26 26 26 27 29 30 31 32 33 33 32 32 32 33 33 34 34 34 34 35 35 36 37 38 39 39 40 40 41 42 42 43 43 44 44 45 45 45 46 46 46 47 47 47 48 49 49 48 45 43 44 45 45
22 23 24 24 24 25 26 26 27 27 27 27 28 29 30 31 32 33 33 33 32 32 33 34 34 35 35 35 36 36 37 38 39 39 40 40 41 41 42 43 43 44 44 45 45 46 46 46 46 47 47 48 48 49 49 50 51 51 49 46 45 47 47
23 24 24 25 25 26 27 28 28 28 28 28 29 31 32 33 33 34 34 33 33 33 34 35 35 35 36 36 37 38 38 39 40 40 41 42 42 43 44 44 45 45 46 46 47 47 47 48 48 48 49 49 49 50 50 51 52 52 52 50 47 47 48
23 24 25 26 27 28 29 29 29 29 29 30 31 32 33 34 34 35 35 34 34 34 35 35 36 36 37 37 38 39 40 40 41 42 43 43 44 45 45 46 46 47 47 48 48 49 49 49 49 50 50 50 50 51 51 51 52 53 53 52 50 47 48
23 24 26 27 28 29 30 30 31 31 31 31 32 33 34 35 36 36 35 35 35 35 36 36 37 37 37 38 39 40 41 42 42 43 44 45 46 46 46 47 47 48 48 49 49 50 50 50 50 51 51 52 51 51 52 52 52 53 53 53 52 50 49
23 25 26 27 29 30 31 32 32 32 32 33 33 34 35 36 37 37 36 35 36 37 37 37 37 38 38 38 39 40 41 42 43 44 45 46 46 47 47 48 48 48 49 49 50 50 51 51 51 51 51 52 53 53 53 53 53 53 54 54 53 53 52
23 25 26 28 30 31 32 33 33 33 33 34 35 36 36 37 37 37 36 36 37 37 38 37 37 37 38 39 40 40 41 43 44 45 45 46 46 47 47 47 48 48 49 50 51 51 52 52 52 52 53 53 53 54 54 54 54 54 54 54 54 54 53
25 26 27 29 31 32 34 34 34 34 34 35 36 37 37 37 37 36 36 37 38 38 38 37 37 38 38 39 40 41 42 43 44 44 45 45 46 46 46 47 47 48 49 50 51 52 53 55 55 55 56 56 56 56 55 55 55 55 55 55 55 55 54
27 28 29 30 32 34 35 36 35 35 36 37 38 38 37 37 36 36 37 38 38 38 38 37 38 38 39 40 41 42 43 44 44 44 45 45 45 46 46 47 48 48 49 50 51 52 53 54 55 56 57 58 58 58 58 58 57 57 57 56 56 55 55
29 30 31 32 33 35 36 37 37 37 38 39 39 38 37 36 36 36 37 38 38 38 37 37 38 38 40 41 42 43 43 44 44 44 45 45 46 47 48 49 49 50 51 51 51 52 52 52 53 54 55 56 58 59 60 60 60 60 59 58 57 55 55
30 30 31 32 34 36 38 39 39 39 40 40 39 38 36 35 36 37 38 38 38 37 37 37 38 40 41 42 43 43 43 44 44 45 46 47 48 49 50 50 51 51 51 52 51 51 51 51 51 52 53 54 55 57 58 59 60 61 61 60 59 57 55
30 30 31 33 36 38 40 41 41 41 40 40 38 36 34 34 35 37 38 38 37 37 37 38 39 41 42 42 42 43 43 44 45 46 47 48 49 50 51 51 51 51 51 51 50 50 50 50 50 52 53 54 55 56 57 58 59 59 60 60 60 59 57
32 32 32 33 36 40 42 43 41 40 40 39 36 33 32 34 35 36 37 37 36 36 37 39 40 41 41 41 42 42 43 44 46 47 48 49 50 50 50 50 50 50 49 49 49 49 49 50 51 52 53 55 56 57 58 59 59 59 59 59 59 59 58
35 35 34 33 36 39 42 41 40 39 38 35 31 30 32 33 35 35 36 36 35 36 38 39 40 40 40 40 41 42 43 45 46 47 48 48 48 48 48 48 48 48 48 48 48 49 49 50 51 52 54 55 57 59 60 61 61 61 60 59 57 57 57
35 33 32 32 34 37 39 39 38 36 34 30 29 30 32 33 34 34 34 35 36 37 39 39 39 39 39 40 41 42 44 45 46 47 47 46 46 46 45 46 46 46 47 47 47 48 49 50 51 52 54 55 57 58 59 60 61 61 60 59 57 55 53
31 29 28 30 33 35 35 35 33 31 29 28 29 31 31 32 33 33 33 35 37 38 38 37 37 38 39 40 41 43 44 45 45 45 44 44 44 43 43 44 44 44 45 45 45 46 47 49 50 51 52 53 54 54 54 54 54 54 54 53 53 52 49
26 26 27 30 31 31 30 29 28 27 27 28 29 31 31 32 32 33 34 36 37 37 36 36 37 38 39 40 41 42 43 43 42 41 41 41 41 42 42 42 42 42 42 42 43 45 45 47 47 48 50 51 50 48 45 44 44 44 43 40 39 40 40
21 22 24 26 26 26 26 25 25 26 27 29 30 30 31 31 32 33 35 35 35 35 35 36 37 38 39 40 41 41 41 39 39 38 39 39 40 40 41 40 40 40 40 41 42 43 44 45 46 48 50 50 44 38 35 37 38 32 26 23 24 26 27
20 20 21 23 23 24 24 24 25 27 28 29 29 30 30 31 32 33 34 34 34 34 35 36 37 38 39 40 39 38 37 36 36 36 37 38 39 39 39 38 38 39 39 40 41 42 43 45 47 50 51 46 37 30 31 36 32 21 16 21 24 19 14
20 21 21 22 22 23 23 25 26 27 28 28 28 29 30 31 32 32 32 32 33 34 35 36 37 38 38 38 36 35 34 34 34 35 36 38 38 38 37 37 37 38 39 39 40 41 43 45 47 51 51 42 30 26 31 34 25 16 18 25 26 17 11
20 21 21 21 22 23 24 25 26 26 27 27 28 29 30 31 31 31 31 32 33 34 35 36 37 37 36 35 33 32 32 33 34 35 36 37 36 36 36 36 36 37 38 38 40 41 43 45 48 50 50 40 28 25 29 31 23 18 20 23 23 17 13
20 20 21 21 22 23 24 25 25 26 26 27 28 29 29 29 30 30 31 32 33 34 36 36 36 35 33 32 30 30 31 32 33 35 35 36 35 35 35 35 35 36 37 38 39 41 43 45 47 49 49 41 30 26 27 28 26 23 22 21 20 17 12

ECMWFFLT1_500_spd_114.txt.gz
Wind_Speed
12 9 9 9 9 10 10 11 12 13 13 13 12 12 12 13 13 13 14 14 15 16 17 19 20 21 21 22 22 23 23 24 24 24 25 25 25 26 26 26 26 27 27 27 27 27 25 24 25 26 26 26 26 25 25 25 24 24 25 26 27 26 25
9 9 10 10 10 10 10 12 13 13 14 14 13 13 13 13 13 14 15 15 16 17 19 20 22 23 24 24 24 24 25 25 26 26 26 26 26 27 27 27 28 28 28 28 28 28 28 26 25 25 26 27 27 27 27 27 26 25 25 25 27 28 27
10 10 10 10 10 10 11 12 13 14 15 15 15 14 14 14 15 16 17 18 18 19 20 22 23 24 25 26 26 26 27 27 28 28 29 29 28 29 28 28 29 29 29 29 29 29 29 29 28 27 27 27 27 28 29 29 28 28 27 26 26 27 28
10 10 10 11 11 11 12 13 14 15 15 16 16 16 16 17 17 18 19 20 20 21 22 23 25 26 27 27 27 28 28 28 29 29 30 30 30 30 31 31 30 31 30 30 30 30 30 30 30 29 29 29 29 29 31 31 31 31 30 29 28 27 28
11 11 11 12 12 13 14 15 16 16 16 17 17 17 18 18 19 20 20 21 22 23 24 25 27 27 28 29 29 29 29 30 30 30 31 31 32 32 32 33 33 33 33 33 33 33 32 32 32 31 31 31 30 30 31 32 32 33 33 32 31 30 29
12 12 13 14 15 15 16 16 17 17 17 17 17 18 19 19 20 21 22 23 24 25 26 27 28 29 30 30 31 31 31 31 31 32 32 32 33 33 33 34 35 35 36 36 36 35 35 35 34 34 33 33 32 31 31 33 33 33 34 35 35 33 32
13 13 14 15 16 16 17 17 17 16 16 17 17 18 19 20 21 22 23 24 25 26 28 29 30 31 32 32 32 33 33 33 33 33 33 34 34 35 35 35 36 36 37 37 37 37 37 37 37 36 35 35 34 33 33 34 34 34 34 36 37 36 35
14 15 15 16 17 17 17 16 16 16 16 17 18 19 21 22 22 23 24 25 26 28 29 30 31 32 32 33 33 34 34 34 34 34 35 35 35 36 36 36 37 37 37 37 38 38 38 38 38 38 38 36 35 35 34 35 35 36 36 36 37 38 38
15 16 17 17 17 16 16 16 16 17 17 18 19 20 21 22 23 24 25 26 27 28 29 30 31 32 33 33 34 34 34 35 35 35 36 36 36 36 36 36 36 36 36 37 37 38 38 39 39 40 40 39 38 36 35 35 35 36 38 38 37 38 40
17 17 17 17 16 15 16 16 17 18 19 20 20 21 22 22 23 24 24 26 27 28 29 30 31 33 33 34 34 34 35 35 36 36 36 36 35 35 36 35 36 36 36 37 38 38 38 39 39 40 40 41 41 40 38 36 35 35 38 40 39 39 40
18 18 17 16 15 15 16 17 18 19 19 20 20 21 21 22 22 23 25 26 27 28 30 31 32 33 34 35 35 35 36 36 36 36 36 35 35 35 35 36 36 37 37 38 39 39 40 40 41 41 42 42 43 43 42 41 38 36 37 39 40 40 41
18 17 16 16 16 16 17 17 18 19 19 20 20 21 21 22 22 24 25 27 28 30 31 32 33 34 35 35 35 36 36 36 36 36 36 35 35 36 36 37 38 38 39 40 40 41 42 42 43 43 44 44 45 46 46 45 43 40 39 39 40 42 42
17 17 17 17 17 17 17 18 18 19 19 20 21 22 22 22 23 24 26 27 29 30 32 33 33 34 34 35 35 36 36 36 36 35 36 36 36 37 38 39 39 40 40 41 42 42 43 43 44 45 45 45 46 47 47 48 46 44 43 42 42 42 44
18 18 18 18 17 18 18 19 20 20 21 22 22 23 23 23 24 25 27 28 30 31 32 32 33 33 34 34 34 35 34 35 35 35 36 37 37 38 39 39 40 40 41 41 42 42 43 43 44 45 45 46 46 47 48 49 48 47 45 45 45 44 45
19 19 19 19 18 19 20 20 21 22 23 23 24 24 24 25 26 27 28 30 31 32 32 33 33 34 34 34 34 34 35 35 36 36 37 38 38 39 39 40 40 41 42 42 43 43 43 44 44 45 45 46 46 47 49 49 49 49 47 46 46 46 47
19 19 19 20 20 21 22 22 23 23 24 25 25 25 26 26 27 28 30 31 32 33 33 34 35 35 36 36 35 35 36 37 37 38 38 39 39 40 40 41 42 42 43 44 44 45 46 46 46 46 47 47 47 48 49 50 50 50 49 48 47 47 48
20 20 21 22 22 23 23 24 24 25 26 26 27 27 28 28 29 30 31 33 33 34 35 36 36 37 37 37 37 37 38 39 39 39 40 40 40 41 42 43 43 44 45 46 46 47 47 47 48 48 48 49 49 49 50 50 51 51 51 50 49 48 49
20 21 21 22 22 23 24 24 25 26 27 28 29 29 29 30 31 32 33 34 35 35 36 37 38 38 38 38 38 39 39 40 40 41 41 41 42 43 43 44 45 46 46 47 47 47 47 48 48 49 49 49 50 50 51 51 52 52 52 52 51 50 50
21 21 21 21 22 23 24 25 25 27 28 29 30 30 31 32 33 34 35 35 36 36 37 38 38 39 38 38 39 40 41 41 42 42 42 43 44 45 46 46 47 47 48 48 48 48 48 48 48 48 49 49 50 50 51 52 52 53 54 54 53 52 52
23 23 23 23 23 24 25 26 27 28 29 30 31 31 33 34 35 36 36 37 37 37 38 38 39 39 39 39 40 41 42 42 43 43 44 45 46 47 48 48 49 49 49 49 49 49 48 48 49 50 50 50 51 51 52 52 53 54 54 55 55 55 54
24 24 24 24 25 25 26 27 28 28 29 31 32 33 34 35 37 38 39 39 38 38 39 39 39 39 39 40 41 42 43 43 44 45 46 47 48 48 49 49 49 49 49 50 50 50 50 50 51 51 52 52 53 53 53 54 54 54 55 55 55 55 55
23 23 24 24 25 26 27 28 29 30 31 32 34 35 36 37 38 40 41 40 40 39 39 39 39 39 40 41 42 42 43 44 45 46 47 48 48 48 48 48 48 49 49 50 51 52 53 53 53 54 54 55 55 55 55 55 55 55 55 55 55 55 55
22 22 23 24 25 27 29 30 31 32 33 34 36 37 38 39 40 42 42 41 41 40 40 39 39 40 40 41 41 42 43 44 45 46 47 48 48 48 48 48 48 49 50 51 52 53 54 54 55 56 56 56 57 56 56 55 55 55 55 55 56 55 55
22 23 24 26 28 29 31 32 33 34 35 36 37 38 39 40 42 43 44 43 42 42 41 40 40 40 40 41 41 42 43 44 46 47 47 47 47 47 47 48 49 50 51 52 52 53 54 54 55 55 56 56 57 57 57 57 56 56 56 56 56 56 56
23 24 26 28 29 31 32 34 34 34 35 36 37 38 40 42 43 44 44 43 43 42 40 39 40 40 40 41 41 42 44 45 46 47 47 47 47 47 48 49 50 51 51 52 52 52 53 53 54 54 54 55 55 56 57 57 57 57 57 57 57 58 58
26 27 28 30 31 32 33 34 34 35 35 36 37 39 41 42 44 44 44 43 42 40 39 38 39 40 40 41 42 43 44 45 46 46 45 46 47 48 49 50 51 51 51 51 51 51 51 52 52 52 53 53 54 55 56 57 58 59 59 59 59 59 59
28 29 31 32 33 35 35 35 35 36 36 37 37 38 40 41 42 43 42 40 39 37 37 38 39 39 40 41 42 44 44 44 44 44 45 46 47 48 49 50 50 50 50 50 50 50 50 50 50 50 51 51 53 54 55 57 58 58 59 60 60 60 60
30 31 32 34 35 36 37 37 37 37 37 37 36 36 37 39 40 39 38 36 35 35 36 37 37 39 40 42 43 43 43 43 43 44 45 46 48 48 49 49 49 49 48 48 48 48 48 48 48 49 50 52 53 54 54 55 55 57 58 59 59 58 58
30 31 32 34 36 37 38 38 36 35 34 33 32 33 35 36 36 35 34 34 34 34 35 36 37 39 40 42 42 42 42 42 42 44 45 47 47 48 48 48 47 47 47 46 46 46 46 46 47 48 50 51 51 51 52 52 54 55 55 55 55 53 50
30 31 32 33 33 33 34 33 31 29 29 30 31 32 33 33 33 32 32 33 33 34 35 36 38 40 41 41 41 40 41 42 43 44 46 46 46 46 46 46 45 45 45 44 44 44 44 45 46 47 48 48 49 49 50 51 52 50 48 48 47 42 36
29 30 31 31 30 28 28 28 28 28 29 30 30 30 31 31 31 31 31 32 32 33 35 37 38 40 40 39 39 40 41 42 43 44 45 45 45 44 44 44 43 43 43 42 42 42 43 44 45 46 45 46 47 48 49 50 46 40 38 40 37 33 32
28 29 30 29 27 25 24 25 26 27 28 29 28 29 29 29 29 30 30 31 33 34 36 38 38 38 38 38 38 39 41 42 43 43 43 43 42 42 42 42 42 41 40 40 40 41 43 44 44 44 45 45 46 48 50 48 40 33 33 33 28 28 33
27 28 28 27 24 22 22 23 23 24 26 26 27 27 27 28 28 29 30 32 33 35 36 37 37 36 36 37 38 39 41 41 41 41 40 40 40 40 40 40 39 39 38 38 40 41 42 43 43 44 45 46 47 50 50 45 35 31 34 32 27 29 34
27 27 27 25 23 22 22 22 23 24 25 25 26 27 27 28 29 29 30 32 34 35 36 35 35 35 36 37 38 39 40 40 39 39 38 38 38 38 38 38 37 36 36 37 39 40 41 42 43 44 45 46 48 50 49 41 33 32 34 32 30 31 33
27 27 26 25 23 22 22 23 23 24 25 26 26 27 27 28 28 29 31 33 34 34 34 33 34 34 36 37 38 38 38 38 37 36 36 35 36 36 36 36 35 35 35 36 38 39 39 40 41 43 45 46 48 50 48 39 32 31 33 32 31 30 29
26 27 26 25 23 22 22 23 24 25 25 26 26 26 27 27 29 30 32 32 33 32 32 33 34 35 36 37 37 37 36 35 34 34 33 34 35 35 34 34 34 34 35 36 37 38 39 40 40 41 43 45 47 49 49 41 31 28 29 31 32 30 27
25 25 25 24 23 22 23 23 24 25 25 25 25 26 27 28 29 30 31 31 31 31 31 33 34 35 36 36 35 35 34 33 32 32 32 33 33 33 33 32 32 33 34 35 36 37 38 39 39 40 41 43 44 46 48 44 34 26 25 27 31 30 27

ECMWFFLT1_500_spd_117.txt.gz
Wind_Speed
21 20 18 16 17 17 16 12 11 11 11 10 10 10 10 10 11 11 12 13 14 16 17 18 19 20 21 23 24 26 27 27 28 28 28 29 30 31 32 32 32 32 31 30 29 28 26 24 26 28 28 28 27 27 27 27 27 27 27 27 27 27 26
16 16 15 15 15 15 12 10 11 12 11 11 11 11 11 12 12 13 14 15 16 17 19 20 21 22 24 25 26 28 29 30 30 30 30 31 31 32 32 33 33 33 33 33 32 32 31 28 27 27 29 29 29 30 29 28 28 29 29 28 29 29 28
13 12 12 13 13 12 11 12 13 13 12 11 11 11 12 12 13 14 15 16 18 19 20 22 23 24 26 27 28 29 30 31 32 32 32 32 32 32 32 33 33 33 34 35 35 35 35 34 32 30 30 30 29 30 31 31 30 30 30 30 30 30 29
12 10 12 12 12 12 13 14 14 13 12 11 11 12 12 13 14 15 17 18 19 21 22 23 25 26 27 28 30 30 31 32 32 33 33 33 33 33 34 34 33 34 34 34 35 36 36 36 35 34 33 32 31 30 31 32 32 32 32 32 32 31 31
11 12 12 11 12 14 15 15 14 13 12 12 12 13 13 14 16 17 19 20 21 22 23 24 26 27 28 29 30 31 31 31 32 32 32 33 34 34 35 35 35 35 35 35 35 36 36 36 35 34 33 33 32 31 32 33 33 34 34 34 34 33 33
12 12 12 12 13 14 14 14 13 13 13 13 13 14 15 16 17 18 20 21 22 23 24 25 27 27 28 29 30 30 30 31 31 32 33 33 34 35 35 36 36 36 36 36 37 37 36 36 36 35 34 33 33 32 32 33 33 34 35 36 36 35 35
11 11 11 12 13 14 14 13 14 14 14 14 14 15 16 17 18 19 20 21 22 23 25 26 27 27 28 29 29 30 30 31 32 32 33 34 34 35 35 36 36 36 36 37 37 37 37 37 37 37 36 35 34 34 33 33 34 34 35 36 37 37 37
9 10 11 13 14 14 14 14 15 15 15 15 15 15 16 17 18 19 20 21 22 23 25 26 27 27 28 29 30 30 31 32 32 33 33 34 34 35 35 35 36 36 36 36 37 37 38 38 38 38 38 37 36 35 35 35 35 36 36 36 38 39 39
9 11 13 14 14 14 15 15 15 15 15 15 15 16 17 18 19 20 20 21 22 24 25 26 27 28 29 29 30 31 32 32 33 33 33 34 34 35 35 35 35 36 36 36 37 38 38 39 39 39 39 39 38 36 35 35 35 37 37 37 38 40 41
11 13 14 15 15 15 15 16 15 15 15 15 16 16 17 18 19 20 20 22 23 24 25 26 28 29 29 30 31 31 32 32 33 33 34 34 34 34 35 35 36 36 37 37 38 38 39 40 40 40 40 40 40 39 37 36 36 37 38 37 38 39 41
13 15 16 16 16 16 16 16 15 15 15 15 16 17 18 18 19 20 21 22 23 25 26 27 28 29 30 31 31 32 32 33 33 34 34 34 34 34 35 36 36 37 38 38 39 40 40 41 41 42 42 42 42 42 41 39 38 39 39 39 39 39 41
15 15 16 16 16 16 15 15 15 15 15 16 16 17 18 19 20 21 22 23 24 25 26 27 28 30 30 31 32 32 33 33 34 35 35 35 35 35 36 36 37 38 38 39 40 40 41 42 43 43 44 45 45 45 45 44 42 43 42 42 42 42 42
16 15 15 15 15 15 15 15 16 16 17 17 17 18 19 20 21 22 23 24 25 26 26 28 29 30 31 32 33 34 34 35 35 36 36 36 36 36 37 37 38 38 39 40 41 42 43 44 45 45 46 47 47 47 47 47 46 45 46 45 45 44 44
16 16 16 16 16 16 16 17 17 18 18 18 19 20 21 22 22 23 24 24 25 26 27 29 30 32 33 34 35 35 36 36 37 37 38 38 38 38 38 39 39 39 40 42 43 44 45 46 47 48 48 48 49 49 49 49 48 46 46 47 47 46 46
17 17 17 17 17 18 18 18 18 19 20 20 21 22 22 23 23 24 25 26 27 28 29 30 32 33 35 35 36 37 38 38 38 39 39 39 39 39 39 39 40 41 42 44 46 47 48 49 50 50 51 51 51 51 51 50 50 48 47 47 48 48 48
18 18 18 18 18 18 19 19 20 21 21 22 23 23 23 24 25 26 26 27 28 29 30 32 34 35 36 37 38 39 39 39 39 39 39 39 40 40 40 41 42 43 45 46 48 49 50 51 52 52 52 52 52 52 52 52 51 50 49 48 49 49 49
18 19 19 19 19 20 21 21 22 22 23 23 23 24 24 25 27 28 29 29 30 31 33 34 36 38 39 39 39 40 40 40 39 39 40 40 41 41 41 42 44 45 47 48 49 51 51 52 52 52 52 52 52 51 52 52 52 52 52 51 51 51 51
20 20 20 20 21 21 22 22 22 22 22 23 24 25 26 27 29 30 30 31 32 33 35 37 39 40 40 40 40 40 40 40 40 40 41 42 42 42 43 45 46 48 49 50 51 51 52 52 52 52 51 51 51 51 51 52 53 53 54 54 54 54 54
20 20 20 21 21 22 22 22 22 23 23 25 26 27 28 29 30 31 32 33 34 36 37 39 41 41 41 41 41 41 41 41 41 42 43 43 44 45 46 48 49 51 52 52 52 52 53 53 52 52 52 52 52 52 52 53 53 54 54 55 55 55 55
19 20 21 22 23 23 24 24 24 25 26 27 27 29 30 31 32 33 34 35 36 37 39 40 42 43 43 43 43 42 42 42 43 44 45 45 45 47 49 51 52 53 53 53 53 53 53 53 53 53 53 53 54 54 54 54 54 55 55 55 55 54 54
18 20 22 23 24 25 25 25 26 26 27 28 29 30 31 32 34 35 36 37 37 38 39 40 42 43 44 44 43 42 42 42 43 45 45 46 47 49 51 52 53 53 54 54 53 53 53 53 53 54 54 54 55 55 55 55 54 54 54 54 53 53 52
19 21 23 24 24 25 25 25 25 26 27 29 30 31 33 34 35 35 35 36 37 38 40 41 42 43 44 43 42 41 41 42 43 45 46 47 48 50 51 52 53 53 53 53 53 53 53 53 54 54 55 55 55 55 54 54 53 52 52 51 51 51 51
20 22 23 23 23 23 24 24 25 27 28 30 31 32 33 34 34 34 35 37 38 39 40 40 41 41 41 41 40 40 41 42 44 45 46 47 48 50 51 51 51 51 52 52 52 52 52 53 53 54 54 54 54 54 53 52 52 52 51 51 51 51 51
21 22 22 22 22 23 24 25 26 28 29 31 32 33 34 34 34 35 37 38 38 39 38 38 38 39 39 38 39 40 41 42 43 44 46 48 49 49 50 50 50 50 51 51 51 51 51 52 52 52 52 52 52 52 52 52 52 52 53 53 53 53 53
22 22 22 22 24 25 26 27 28 30 32 33 34 35 35 35 35 36 37 37 37 36 35 36 36 36 37 37 39 40 41 42 43 44 46 47 48 48 48 48 49 49 49 49 49 50 50 50 50 49 49 49 49 50 52 53 53 53 54 54 54 54 54
23 23 23 24 25 26 27 29 30 31 33 35 36 37 37 36 35 36 36 34 33 33 34 35 35 35 36 38 39 40 40 41 43 45 46 47 47 47 47 48 48 48 48 48 48 48 48 47 47 46 47 47 48 50 51 52 52 53 53 53 52 53 52
24 24 25 25 26 27 28 29 30 32 33 34 36 37 36 34 32 32 31 30 31 32 33 34 34 35 37 37 38 39 40 42 44 44 45 45 45 46 46 46 46 46 46 46 46 46 45 45 45 45 45 47 48 49 50 50 50 50 50 50 49 49 49
25 25 26 26 27 28 28 29 30 31 32 33 33 33 31 29 28 28 29 30 31 32 33 33 34 36 36 37 37 39 41 42 43 43 43 43 44 45 45 45 45 45 45 44 44 43 43 42 43 44 45 47 48 48 48 49 49 48 48 48 46 44 42
25 26 26 27 27 27 28 29 30 31 32 33 33 31 28 27 28 29 30 31 31 32 33 34 35 35 35 36 38 40 41 41 41 41 42 43 44 44 44 44 44 43 43 42 42 41 40 41 42 44 45 46 46 47 47 47 48 49 48 45 41 37 36
26 26 26 26 27 27 28 29 30 31 31 32 32 30 28 28 28 29 29 30 30 32 33 34 34 34 35 37 38 39 39 39 40 41 42 42 43 42 42 42 42 41 41 40 40 39 39 40 41 43 44 44 44 45 45 46 47 49 47 41 35 34 35
26 26 25 25 26 27 28 29 30 30 30 29 29 28 27 27 27 27 28 29 30 32 33 33 33 34 36 37 38 38 38 38 39 41 41 41 41 41 41 40 40 39 39 38 38 37 38 39 41 41 42 42 43 43 44 45 47 48 44 36 32 33 36
25 25 24 24 25 26 28 29 29 28 28 27 26 26 25 25 26 26 28 29 31 31 32 32 33 34 36 36 37 37 37 38 40 40 40 40 40 39 39 38 38 38 37 37 36 36 37 39 39 40 40 41 42 42 44 45 47 48 44 34 29 31 34
23 23 23 23 25 26 27 27 27 26 26 25 24 24 24 24 25 27 28 30 30 31 31 32 33 34 35 35 35 36 37 38 39 39 38 38 37 37 36 36 36 36 35 35 35 35 37 38 38 39 40 40 41 42 43 45 46 48 46 37 30 30 31
21 21 22 24 25 26 26 26 25 25 24 23 23 22 23 24 26 28 29 29 30 30 31 32 33 33 33 33 34 36 37 38 38 37 36 35 35 34 34 34 34 34 34 34 34 34 36 37 37 39 39 40 41 41 42 43 44 46 46 39 33 29 28
20 21 23 24 25 25 25 24 24 24 23 22 22 23 24 25 27 28 29 29 30 30 31 31 32 32 32 33 34 36 37 36 35 34 33 33 32 32 33 33 33 33 32 32 32 33 35 36 37 38 39 39 40 40 41 42 42 43 44 42 36 30 25
21 22 23 23 23 23 23 23 23 23 22 22 23 24 25 26 27 28 28 29 29 29 30 30 30 30 31 33 35 35 35 33 32 32 31 31 31 31 32 32 32 31 31 31 31 32 34 35 36 37 38 38 39 39 40 40 40 41 42 43 39 32 24
22 22 23 23 23 23 22 22 22 22 22 23 23 24 25 26 27 27 28 28 28 28 29 29 29 30 32 33 34 33 32 31 30 29 29 29 29 30 31 31 31 30 30 30 31 32 33 34 35 36 37 38 38 38 39 39 39 40 40 42 41 35 26

ECMWFFLT1_500_spd_123.txt.gz
Wind_Speed
20 21 20 18 17 16 16 16 15 15 14 13 12 12 13 15 17 17 17 17 17 18 18 18 18 19 19 21 22 23 25 25 26 26 27 27 27 26 26 25 25 24 25 25 25 25 24 24 26 28 30 31 32 32 32 32 32 32 32 32 31 30 30
18 19 18 17 16 16 17 16 15 14 13 12 12 12 13 15 16 16 17 18 19 19 19 19 19 20 21 22 23 25 26 26 27 27 28 27 27 27 27 27 27 27 27 27 27 27 26 25 25 26 27 28 30 31 31 32 33 33 32 32 32 31 32
18 17 17 15 15 17 16 15 14 12 12 11 11 12 13 15 16 17 18 18 19 19 19 19 20 21 22 24 25 26 27 28 28 28 27 26 26 26 27 27 29 29 30 30 30 30 30 29 28 28 28 28 29 30 31 33 34 34 34 34 34 33 33
19 18 16 16 17 16 15 14 13 12 12 11 12 12 14 16 17 17 18 18 19 20 20 21 22 23 24 25 26 27 28 28 28 27 27 27 26 26 27 28 29 30 31 31 32 32 32 32 31 32 32 32 33 33 33 34 35 35 35 36 35 35 34
20 18 17 17 16 14 14 13 12 12 12 11 12 14 15 16 17 17 18 19 20 21 22 23 23 24 25 26 26 27 28 28 28 28 28 28 28 28 29 29 30 30 31 32 33 33 33 33 33 33 34 35 36 36 36 36 36 36 35 35 35 35 36
18 17 16 16 15 14 14 13 12 13 12 12 13 15 16 16 17 18 19 20 21 22 23 24 24 25 26 26 27 27 28 28 28 29 29 29 30 30 31 31 31 32 33 34 34 34 35 35 35 35 35 36 37 37 37 37 37 37 37 37 37 37 38
16 16 16 15 14 14 14 13 13 13 12 12 14 15 15 16 17 18 19 20 22 23 24 25 26 26 26 27 27 28 28 29 29 30 30 30 31 32 32 33 33 34 35 35 36 37 37 37 37 37 37 38 39 40 40 40 39 39 39 40 41 41 41
14 16 15 13 13 13 13 13 13 11 11 13 14 14 15 17 18 19 19 21 22 24 25 25 26 26 27 27 28 29 29 30 30 30 31 32 33 34 34 35 36 36 37 38 38 39 39 39 39 38 38 38 39 40 41 42 42 42 42 43 44 45 45
14 15 14 13 14 13 13 12 10 9 11 13 14 15 16 17 18 19 20 22 23 24 25 26 26 27 27 28 29 30 30 31 31 31 32 33 34 35 36 37 38 39 40 40 41 42 42 41 41 40 39 39 39 40 42 43 43 44 45 45 46 47 48
12 13 14 14 14 13 11 10 9 10 12 13 14 15 16 17 18 19 21 23 24 25 25 26 26 27 28 29 30 30 31 31 32 32 33 34 35 37 38 39 40 41 42 42 43 43 43 43 42 42 41 41 42 42 43 45 46 46 47 48 49 50 51
11 13 14 14 13 11 10 8 9 11 12 13 15 16 16 18 19 20 22 23 24 25 25 26 27 28 29 30 30 31 31 32 32 33 34 35 37 39 40 41 42 43 43 44 44 44 43 43 43 42 43 43 44 45 45 47 49 50 51 52 53 53 54
12 14 14 13 11 9 8 8 10 12 13 15 16 16 17 18 20 21 22 23 24 25 26 27 28 29 30 30 31 31 31 32 33 34 36 38 39 41 42 43 44 44 45 44 44 43 42 42 42 42 43 44 45 47 48 49 52 54 54 54 55 55 56
14 14 13 10 8 7 8 10 11 13 14 15 16 17 18 19 20 22 23 24 25 26 27 28 29 29 30 31 31 32 32 33 35 36 38 39 41 43 44 45 46 46 46 45 43 42 42 42 43 44 45 47 48 50 52 53 54 56 56 56 56 56 56
14 12 10 7 7 8 10 11 13 14 15 16 16 17 19 20 21 22 23 24 25 27 28 28 29 30 30 31 31 32 33 35 36 38 39 41 43 45 46 47 47 46 45 44 43 42 43 44 46 48 49 51 53 54 54 55 55 55 56 56 56 56 57
13 11 8 7 8 10 11 12 13 14 15 16 17 18 20 21 22 22 23 25 26 27 27 28 29 30 30 31 32 34 35 37 38 39 41 43 45 47 47 47 46 45 44 43 43 44 46 48 50 51 53 54 55 55 55 54 54 54 55 56 57 57 58
13 10 8 9 10 11 12 13 14 15 16 17 18 19 20 21 22 23 24 25 26 26 27 28 29 30 31 32 34 36 37 38 39 41 43 45 46 47 46 45 44 44 44 44 45 47 49 51 52 53 54 55 55 55 55 55 56 56 57 58 59 59 59
13 12 11 12 12 13 14 14 15 16 17 18 19 19 20 21 22 23 24 25 26 26 27 28 30 31 33 34 36 37 38 40 41 43 44 45 45 44 43 43 43 44 44 46 48 50 51 53 54 54 54 54 55 55 56 57 57 58 58 58 58 58 58
14 13 13 13 13 14 15 15 16 17 18 19 19 20 20 21 23 24 25 25 26 26 28 30 31 33 34 36 37 38 40 41 42 43 44 44 43 42 42 42 43 44 46 48 50 52 53 53 53 54 54 54 55 56 56 56 57 57 56 56 54 54 54
14 14 14 13 13 14 15 17 18 18 19 20 20 20 21 22 23 24 24 25 26 28 30 31 33 34 36 37 39 40 41 42 42 42 42 41 41 41 42 43 44 46 48 50 51 52 52 52 52 53 54 54 55 55 55 54 54 53 51 51 50 49 49
15 15 14 14 14 15 17 18 19 19 19 20 20 21 22 23 23 24 24 26 28 30 31 33 34 36 37 38 40 41 41 41 40 40 39 40 40 41 42 44 46 48 49 50 51 51 51 52 52 53 54 54 54 53 52 51 49 48 47 47 47 47 47
16 16 15 15 15 17 18 18 19 19 19 19 20 21 22 22 23 24 26 28 30 31 33 34 35 37 38 39 40 41 40 39 38 38 38 39 40 41 43 45 47 48 49 49 49 50 51 52 53 53 53 52 52 50 49 47 46 46 46 45 46 47 47
17 17 17 17 17 17 17 18 18 18 19 19 20 21 21 22 24 26 28 30 31 32 34 35 36 37 38 39 39 39 38 37 36 37 37 38 40 42 44 46 47 48 48 49 49 51 52 52 53 52 52 50 48 46 45 45 44 44 45 45 46 47 48
18 18 18 18 18 18 18 18 18 18 19 19 20 20 21 23 26 28 29 31 32 33 34 35 36 37 37 37 37 36 35 35 36 36 37 39 41 43 45 46 47 48 48 49 51 52 52 53 52 51 49 47 45 44 43 43 44 44 45 46 47 48 48
20 20 20 19 19 20 20 19 19 19 19 19 19 21 23 25 27 29 30 31 33 34 35 35 36 36 36 35 34 33 34 34 35 36 38 40 42 44 45 46 46 47 49 50 51 52 52 51 50 48 46 44 43 43 43 43 43 44 45 46 47 48 49
21 21 21 21 21 21 21 20 20 20 19 19 21 22 25 27 29 30 31 32 33 34 35 36 36 35 34 32 32 32 32 33 35 37 39 41 42 44 44 45 46 47 49 50 51 50 49 48 46 44 43 42 42 42 43 43 43 44 45 46 48 49 50
23 23 22 22 22 22 22 21 21 20 20 21 22 24 26 28 29 30 31 32 34 35 36 35 35 33 32 31 31 31 32 34 35 37 39 40 42 43 43 44 46 48 49 49 49 47 46 44 42 41 41 40 41 41 42 43 43 44 45 46 48 49 51
24 24 24 24 23 23 23 22 22 22 22 23 24 26 28 29 30 31 32 33 35 35 35 34 33 32 31 30 30 31 32 34 35 37 39 40 41 42 43 45 46 47 47 47 45 43 41 40 40 39 39 39 40 40 41 42 42 43 44 46 47 49 51
26 26 25 25 25 25 24 23 23 24 24 24 26 27 29 30 30 31 33 34 35 35 34 33 32 31 30 30 31 31 32 34 35 37 38 39 40 41 43 45 46 46 45 43 41 40 39 38 38 38 38 38 39 40 40 41 42 43 44 45 47 49 51
29 29 27 27 27 26 25 24 25 25 25 26 27 28 29 30 31 32 33 34 35 34 33 31 30 29 29 30 30 31 32 34 35 37 38 39 40 41 43 44 44 43 42 40 38 37 37 37 37 37 37 38 38 39 40 41 41 42 43 44 46 49 51
31 30 29 29 29 28 26 26 26 26 26 27 27 28 29 30 31 33 34 34 33 32 30 30 29 29 29 29 30 31 32 34 36 37 37 38 39 41 43 43 42 40 39 37 36 36 36 36 35 35 36 36 37 38 39 40 40 41 41 43 45 47 50
33 32 31 31 31 30 28 27 27 27 27 27 27 28 29 30 32 33 33 33 31 29 29 28 28 28 28 28 29 31 33 34 35 36 36 38 40 41 41 40 39 37 36 35 34 34 34 34 34 34 35 36 36 37 38 38 38 39 39 40 42 44 47
36 36 36 36 34 30 28 27 27 27 26 26 27 28 29 31 32 32 32 30 29 27 27 27 27 27 27 28 30 31 33 34 34 35 36 38 39 40 39 38 36 35 34 33 33 33 33 33 33 34 35 36 37 37 37 37 38 38 38 39 40 41 44
34 37 40 39 33 28 27 26 25 25 25 26 28 29 30 31 31 31 30 28 27 26 26 26 26 26 27 28 30 31 32 33 33 34 36 38 38 38 37 35 34 33 32 32 32 32 32 32 33 34 35 36 37 37 37 38 39 39 39 39 40 40 42
32 36 39 36 30 26 24 23 23 24 25 27 28 28 30 30 30 30 28 26 25 25 25 25 26 26 27 29 30 31 31 32 32 33 36 37 36 36 34 33 32 31 31 31 31 31 32 32 33 34 35 36 37 37 38 38 39 40 40 39 40 39 40
30 31 32 29 25 23 22 22 23 25 26 27 28 28 29 29 29 27 26 25 25 24 25 25 26 26 27 28 29 30 30 31 32 33 35 35 34 34 32 31 30 29 29 30 30 30 31 31 32 34 35 36 37 38 38 38 39 39 39 39 39 39 39
27 26 25 24 23 23 22 23 24 25 26 27 28 28 28 28 27 26 25 24 24 24 25 25 26 26 27 28 28 29 29 30 32 33 34 33 32 32 30 29 28 28 28 29 29 29 30 30 31 32 34 35 36 37 38 38 39 39 39 39 39 38 38
26 25 25 24 23 22 22 23 24 25 26 27 27 28 27 27 26 25 24 24 24 24 25 25 25 26 27 27 28 28 28 30 31 32 32 31 31 30 28 27 27 27 28 28 29 29 29 30 30 31 32 34 35 36 37 38 38 38 38 39 39 38 38